Location: Unspecified
(0.0000°N, 0.0000°E)
Time: 12:10:03
(UTC+00:00)

Courier 1B Rocket - Pass Details

Date: 23 November 2019
Orbit: 920 x 1202 km, 28.2° (Epoch: 10 December)

Event Time Altitude Azimuth Distance (km) Brightness Sun altitude
Rises 21:45:02 0° 291° (WNW) 4,079 8.5 -54.0°
Enters shadow 21:45:54 - 290° (WNW) 3,793 8.3 -54.1°
Reaches altitude 10° 21:47:57 10° 287° (WNW) 3,125 - -54.6°
Maximum altitude 21:55:35 56° 210° (SSW) 1,387 - -56.1°
Drops below altitude 10° 22:03:05 10° 133° (SE) 3,063 - -57.5°
Sets 22:05:55 0° 129° (SE) 3,993 - -58.0°
